Weather History for LTCG - January, 2014

Change the Weather History Date:

Monday, January 27, 2014

  Actual Average Record
Temperature  
Mean Temperature 60 °F -  
Max Temperature 69 °F 49 °F 73 °F (2007)
Min Temperature 52 °F 38 °F 28 °F (1997)
Degree Days  
Heating Degree Days 4    
Growing Degree Days 10 (Base 50)    
Moisture  
Dew Point 34 °F    
Average Humidity 31    
Maximum Humidity 55    
Minimum Humidity 13    
Precipitation  
Precipitation 0.00 in - - ()
Sea Level Pressure  
Sea Level Pressure 29.62 in    
Wind  
Wind Speed 7 mph ()    
Max Wind Speed 18 mph    
Max Gust Speed 26 mph    
Visibility 7.0 miles    
Events      
Averages and records for this station are not official NWS values.
T = Trace of Precipitation, MM = Missing Value Source: Averaged Metar Reports

Daily Weather History Graph

Daily Weather History Graph

Search for Another Location

Airport or City:

Trip Planner

Search our weather history database for the weather conditions in past years. The results will help you decide how hot, cold, wet, or windy it might be!

Date:

Astronomy

Jan. 27, 2014 Rise Set
Actual Time 6:36 AM EET 4:31 PM EET
Civil Twilight 6:06 AM EET 5:00 PM EET
Nautical Twilight 5:33 AM EET 5:34 PM EET
Astronomical Twilight 5:01 AM EET 6:06 PM EET
Moon 2:55 AM EET (1/27) 12:55 PM EET (1/27)
Length of Visible Light 10h 54m
Length of Day
9h 55m
Waning Crescent, 17% of the Moon is Illuminated
Jan 27
Waning Crescent
Jan 30
New
Feb 6
First Quarter
Feb 15
Full
Feb 22
Last Quarter

Hourly Weather History & Observations

Time (EET) Temp. Dew Point Humidity Pressure Visibility Wind Dir Wind Speed Gust Speed Precip Events Conditions
12:20 AM 62.6 °F 33.8 °F 34% 29.62 in 6.2 mi South 5.8 mph - N/A   Mostly Cloudy
12:50 AM 59.0 °F 37.4 °F 45% 29.59 in 6.2 mi South 4.6 mph - N/A   Mostly Cloudy
1:20 AM 60.8 °F 37.4 °F 42% 29.59 in 6.2 mi SSE 3.5 mph - N/A   Mostly Cloudy
1:50 AM 60.8 °F 35.6 °F 39% 29.59 in 6.2 mi Variable 1.2 mph - N/A   Mostly Cloudy
2:00 AM 60 °F 35 °F 27% 29.61 in 12 mi WSW 1.2 mph - -   Mostly Cloudy
2:20 AM 60.8 °F 35.6 °F 39% 29.59 in 6.2 mi Variable 3.5 mph - N/A   Mostly Cloudy
2:50 AM 62.6 °F 33.8 °F 34% 29.59 in 6.2 mi Variable 3.5 mph - N/A   Mostly Cloudy
3:20 AM 64.4 °F 32.0 °F 30% 29.59 in 6.2 mi South 9.2 mph - N/A   Mostly Cloudy
3:50 AM 66.2 °F 30.2 °F 26% 29.59 in 6.2 mi South 13.8 mph - N/A   Mostly Cloudy
4:20 AM 66.2 °F 30.2 °F 26% 29.62 in 6.2 mi South 17.3 mph - N/A   Mostly Cloudy
4:50 AM 66.2 °F 28.4 °F 24% 29.59 in 6.2 mi South 17.3 mph - N/A   Mostly Cloudy
5:00 AM 66 °F 29 °F 15% 29.62 in 12 mi South 17.3 mph - -   Mostly Cloudy
5:20 AM 66.2 °F 30.2 °F 26% 29.62 in 6.2 mi SW 11.5 mph - N/A   Mostly Cloudy
5:50 AM 66.2 °F 30.2 °F 26% 29.65 in 6.2 mi SW 18.4 mph - N/A   Mostly Cloudy
6:20 AM 64.4 °F 32.0 °F 30% 29.65 in 6.2 mi SSW 12.7 mph - N/A   Mostly Cloudy
6:50 AM 64.4 °F 32.0 °F 30% 29.65 in 6.2 mi SSW 12.7 mph - N/A   Mostly Cloudy
7:20 AM 64.4 °F 32.0 °F 30% 29.65 in 6.2 mi SSE 9.2 mph - N/A   Mostly Cloudy
7:50 AM 60.8 °F 35.6 °F 39% 29.65 in 6.2 mi ESE 5.8 mph - N/A   Mostly Cloudy
8:00 AM 62 °F 34 °F 24% 29.65 in 12 mi ESE 5.8 mph - -   Mostly Cloudy
8:20 AM 64.4 °F 33.8 °F 32% 29.62 in 6.2 mi Variable 3.5 mph - N/A   Mostly Cloudy
8:50 AM 66.2 °F 32.0 °F 28% 29.62 in 6.2 mi SSW 8.1 mph - N/A   Mostly Cloudy
9:20 AM 64.4 °F 33.8 °F 32% 29.62 in 6.2 mi North 6.9 mph - N/A   Mostly Cloudy
9:50 AM 66.2 °F 32.0 °F 28% 29.62 in 6.2 mi WSW 6.9 mph - N/A   Mostly Cloudy
10:20 AM 68.0 °F 32.0 °F 26% 29.62 in 6.2 mi SSW 9.2 mph 21.9 mph N/A   Mostly Cloudy
10:50 AM 69.8 °F 30.2 °F 23% 29.62 in 6.2 mi SW 15.0 mph 26.5 mph N/A   Mostly Cloudy
11:00 AM 69 °F 30 °F 13% 29.64 in 12 mi SW 15.0 mph - -   Mostly Cloudy
11:20 AM 69.8 °F 30.2 °F 23% 29.62 in 6.2 mi SW 13.8 mph - N/A   Mostly Cloudy
11:50 AM 69.8 °F 33.8 °F 27% 29.62 in 6.2 mi Variable 5.8 mph - N/A   Mostly Cloudy
12:20 PM 68.0 °F 33.8 °F 28% 29.62 in 6.2 mi Variable 2.3 mph - N/A   Mostly Cloudy
12:50 PM 66.2 °F 35.6 °F 32% 29.62 in 6.2 mi Variable 1.2 mph - N/A   Mostly Cloudy
1:20 PM 66.2 °F 35.6 °F 32% 29.62 in 6.2 mi Variable 2.3 mph - N/A   Mostly Cloudy
1:50 PM 64.4 °F 39.2 °F 40% 29.62 in 6.2 mi SE 4.6 mph - N/A   Mostly Cloudy
2:00 PM 64 °F 39 °F 28% 29.63 in 9 mi SE 4.6 mph - -   Mostly Cloudy
2:20 PM 66.2 °F 33.8 °F 30% 29.62 in 6.2 mi SSE 5.8 mph - N/A   Mostly Cloudy
2:50 PM 68.0 °F 32.0 °F 26% 29.62 in 6.2 mi SSE 5.8 mph - N/A   Mostly Cloudy
3:20 PM 68.0 °F 30.2 °F 24% 29.62 in 6.2 mi South 6.9 mph - N/A   Mostly Cloudy
3:50 PM 66.2 °F 35.6 °F 32% 29.62 in 6.2 mi SSW 6.9 mph - N/A   Mostly Cloudy
4:20 PM 59.0 °F 39.2 °F 48% 29.65 in 6.2 mi West 9.2 mph - N/A   Mostly Cloudy
4:50 PM 59.0 °F 39.2 °F 48% 29.65 in 6.2 mi WNW 6.9 mph - N/A   Mostly Cloudy
5:00 PM 59 °F 40 °F 37% 29.65 in 12 mi WNW 6.9 mph - -   Partly Cloudy
5:20 PM 57.2 °F 41.0 °F 55% 29.65 in 6.2 mi Calm Calm - N/A   Mostly Cloudy
5:50 PM 66.2 °F 32.0 °F 28% 29.65 in 6.2 mi South 9.2 mph - N/A   Mostly Cloudy
6:20 PM 66.2 °F 37.4 °F 35% 29.65 in 6.2 mi South 6.9 mph - N/A   Mostly Cloudy
6:50 PM 66.2 °F 32.0 °F 28% 29.65 in 6.2 mi SSW 10.4 mph - N/A   Mostly Cloudy
7:20 PM 66.2 °F 32.0 °F 28% 29.65 in 6.2 mi SSW 12.7 mph - N/A   Mostly Cloudy
7:50 PM 66.2 °F 32.0 °F 28% 29.62 in 6.2 mi SSE 5.8 mph - N/A   Mostly Cloudy
8:00 PM 65 °F 32 °F 18% 29.65 in 12 mi SSE 5.8 mph - -   Partly Cloudy
8:20 PM 64.4 °F 35.6 °F 34% 29.65 in 6.2 mi Variable 2.3 mph - N/A   Mostly Cloudy
8:50 PM 60.8 °F 33.8 °F 36% 29.62 in 6.2 mi Variable 3.5 mph - N/A   Mostly Cloudy
9:20 PM 62.6 °F 35.6 °F 37% 29.62 in 6.2 mi Variable 3.5 mph - N/A   Mostly Cloudy
9:50 PM 66.2 °F 33.8 °F 30% 29.62 in 6.2 mi South 8.1 mph - N/A   Mostly Cloudy
10:20 PM 66.2 °F 32.0 °F 28% 29.62 in 6.2 mi SW 13.8 mph - N/A   Mostly Cloudy
10:50 PM 66.2 °F 33.8 °F 30% 29.62 in 6.2 mi SW 10.4 mph - N/A   Mostly Cloudy
11:00 PM 66 °F 33 °F 18% 29.63 in 12 mi SW 10.4 mph - -   Partly Cloudy
11:20 PM 66.2 °F 32.0 °F 28% 29.62 in 6.2 mi SW 16.1 mph - N/A   Mostly Cloudy
11:50 PM 66.2 °F 32.0 °F 28% 29.62 in 6.2 mi SSW 16.1 mph - N/A   Mostly Cloudy